Location: ??????????
(54.4061°N, 22.6114°E)
Time: 07:52:39
(UTC+00:00)

STARLINK-68 - Pass Details

Date: 23 October 2019
Orbit: 548 x 551 km, 53.0° (Epoch: 16 November)

Event Time Altitude Azimuth Distance (km) Brightness Sun altitude
Rises 17:03:56 0° 277° (W) 2,720 9.0 -16.6°
Reaches altitude 10° 17:06:10 10° 274° (W) 1,826 7.6 -16.9°
Maximum altitude 17:10:16 63° 194° (SSW) 615 3.8 -17.5°
Enters shadow 17:11:48 36° 126° (SE) 887 4.2 -17.7°
